1998-067WQ (59597 NORAD) Tracking and Keplerian Element Data

This shows tracking and keplerian element data for the satellite.

Feedback or suggestion? Click here.




ElementValue
Catalog59597
Name1998-067WQ
Epoch Orbit788
Epoch Day159.93685072
Epoch Year2024
RAAN359.1201
Inclination51.6376
Eccentricity0.0006941
Argument of Perigee236.2742
Mean Anonmoly123.7591
Mean Motion15.61498911
Decay Rate0.00140898
L11 59597U 98067WQ 24159.93685072 .00140898 00000+0 15902-2 0 9994
L22 59597 51.6376 359.1201 0006941 236.2742 123.7591 15.61498911 7888



Live tracking and technical data element details for 1998-067WQ (NORAD 59597). 1998-067WQ can be tracked NOW for your location showing map with azimuth and elevation plus other details from your city location.







IsCatalogInMostPopularTable: catalog: 59597, numindb: 11
Update: records affected: 1



GetName: 59597 1998-067WQ

Hit Count: updated at: Fri, 14 Jun 2024 18:06:11 GMT